Time,TemperatureF,DewpointF,PressureIn,WindDirection,WindDirectionDegrees,WindSpeedMPH,WindSpeedGustMPH,Humidity,HourlyPrecipIn,Conditions,Clouds,dailyrainin,SoftwareType,DateUTC
2013-10-13 00:00:00,57.0,53.5,29.94,NW,308,0.0,0.0,88,0.00,,,0.01,Wunderground v.1.15,2013-10-13 07:00:00,
2013-10-13 00:05:00,56.9,53.4,29.94,NW,308,0.0,0.0,88,0.00,,,0.01,Wunderground v.1.15,2013-10-13 07:05:00,
2013-10-13 00:10:00,56.8,53.3,29.94,NW,308,0.0,0.0,88,0.00,,,0.01,Wunderground v.1.15,2013-10-13 07:10:00,
2013-10-13 00:20:00,56.6,53.1,29.94,NW,308,0.0,0.0,88,0.00,,,0.01,Wunderground v.1.15,2013-10-13 07:20:00,
2013-10-13 00:25:00,56.4,52.9,29.94,NW,308,0.0,0.0,88,0.00,,,0.01,Wunderground v.1.15,2013-10-13 07:25:00,
2013-10-13 00:30:00,56.3,52.8,29.94,NW,308,0.0,0.0,88,0.00,,,0.01,Wunderground v.1.15,2013-10-13 07:30:00,
2013-10-13 00:35:00,56.3,52.8,29.94,NW,308,0.0,0.0,88,0.00,,,0.01,Wunderground v.1.15,2013-10-13 07:35:00,
2013-10-13 00:40:00,56.3,52.8,29.94,NW,308,0.0,0.0,88,0.00,,,0.01,Wunderground v.1.15,2013-10-13 07:40:00,
2013-10-13 00:45:00,56.4,52.9,29.94,NW,308,0.0,0.0,88,0.00,,,0.01,Wunderground v.1.15,2013-10-13 07:45:00,
2013-10-13 00:50:00,56.5,53.0,29.94,NW,308,0.0,0.0,88,0.00,,,0.01,Wunderground v.1.15,2013-10-13 07:50:00,
2013-10-13 00:55:00,56.6,53.4,29.94,NW,308,0.0,0.0,89,0.00,,,0.01,Wunderground v.1.15,2013-10-13 07:55:00,
2013-10-13 01:00:00,56.8,53.6,29.94,NW,308,0.0,0.0,89,0.00,,,0.00,Wunderground v.1.15,2013-10-13 08:00:00,
2013-10-13 07:20:00,58.2,54.7,29.95,SSW,209,0.0,0.0,88,0.00,,,0.00,Wunderground v.1.15,2013-10-13 14:20:00,
2013-10-13 07:25:00,58.2,55.0,29.95,SSW,209,0.0,0.0,89,0.00,,,0.00,Wunderground v.1.15,2013-10-13 14:25:00,
2013-10-13 07:30:00,58.2,55.0,29.96,SSW,209,0.0,0.0,89,0.00,,,0.00,Wunderground v.1.15,2013-10-13 14:30:00,
2013-10-13 07:35:00,58.2,55.0,29.96,SSW,209,0.0,0.0,89,0.00,,,0.00,Wunderground v.1.15,2013-10-13 14:35:00,
2013-10-13 07:40:00,58.4,55.2,29.96,SSW,209,0.0,0.0,89,0.00,,,0.00,Wunderground v.1.15,2013-10-13 14:40:00,
2013-10-13 07:45:00,58.5,55.3,29.96,SSW,209,0.0,0.0,89,0.00,,,0.00,Wunderground v.1.15,2013-10-13 14:45:00,
2013-10-13 07:50:00,58.7,55.5,29.96,SSW,209,0.0,0.0,89,0.00,,,0.00,Wunderground v.1.15,2013-10-13 14:50:00,
2013-10-13 07:55:00,58.8,55.6,29.96,SSW,209,0.0,0.0,89,0.00,,,0.00,Wunderground v.1.15,2013-10-13 14:55:00,
2013-10-13 08:00:00,59.0,55.8,29.97,SSW,209,0.0,0.0,89,0.00,,,0.00,Wunderground v.1.15,2013-10-13 15:00:00,
2013-10-13 08:05:00,59.2,56.0,29.97,SSW,209,0.0,0.0,89,0.00,,,0.00,Wunderground v.1.15,2013-10-13 15:05:00,
2013-10-13 08:10:00,59.5,56.3,29.97,WSW,244,0.0,0.0,89,0.00,,,0.00,Wunderground v.1.15,2013-10-13 15:10:00,
2013-10-13 08:16:00,59.7,56.5,29.97,WSW,244,0.0,0.0,89,0.00,,,0.00,Wunderground v.1.15,2013-10-13 15:16:00,
2013-10-13 08:20:00,60.0,56.7,29.97,WSW,244,0.0,0.0,89,0.00,,,0.00,Wunderground v.1.15,2013-10-13 15:20:00,
2013-10-13 08:25:00,60.2,56.9,29.97,WSW,244,0.0,0.0,89,0.00,,,0.00,Wunderground v.1.15,2013-10-13 15:25:00,
2013-10-13 08:30:00,60.5,57.2,29.96,SW,229,0.0,0.0,89,0.00,,,0.00,Wunderground v.1.15,2013-10-13 15:30:00,
2013-10-13 08:35:00,61.0,57.4,29.96,SW,229,0.0,0.0,88,0.00,,,0.00,Wunderground v.1.15,2013-10-13 15:35:00,
2013-10-13 08:40:00,61.7,58.1,29.96,SSE,160,0.0,0.0,88,0.00,,,0.00,Wunderground v.1.15,2013-10-13 15:40:00,
2013-10-13 08:45:00,62.2,58.3,29.96,SSE,160,0.0,0.0,87,0.00,,,0.00,Wunderground v.1.15,2013-10-13 15:45:00,
2013-10-13 08:50:00,62.7,58.5,29.97,SSE,160,1.0,1.0,86,0.00,,,0.00,Wunderground v.1.15,2013-10-13 15:50:00,
2013-10-13 09:00:00,63.0,58.1,29.97,South,170,1.0,1.0,84,0.00,,,0.00,Wunderground v.1.15,2013-10-13 16:00:00,
2013-10-13 09:05:00,63.1,57.9,29.97,South,178,1.0,1.0,83,0.00,,,0.00,Wunderground v.1.15,2013-10-13 16:05:00,
2013-10-13 09:10:00,63.2,57.9,29.96,South,176,1.0,1.0,83,0.00,,,0.00,Wunderground v.1.15,2013-10-13 16:10:00,
2013-10-13 13:45:00,68.5,57.1,29.95,SSW,193,5.0,7.0,67,0.00,,,0.00,Wunderground v.1.15,2013-10-13 20:45:00,
2013-10-13 13:50:00,68.5,57.1,29.95,SSE,166,5.0,7.0,67,0.00,,,0.00,Wunderground v.1.15,2013-10-13 20:50:00,
2013-10-13 13:55:00,69.0,57.6,29.95,WSW,239,4.0,4.0,67,0.00,,,0.00,Wunderground v.1.15,2013-10-13 20:55:00,
2013-10-13 14:00:00,69.1,57.3,29.95,South,190,4.0,5.0,66,0.00,,,0.00,Wunderground v.1.15,2013-10-13 21:00:00,
2013-10-13 14:10:00,68.6,56.8,29.95,SSW,211,6.0,6.0,66,0.00,,,0.00,Wunderground v.1.15,2013-10-13 21:10:00,
2013-10-13 14:16:00,68.1,56.7,29.95,SSW,210,7.0,7.0,67,0.00,,,0.00,Wunderground v.1.15,2013-10-13 21:16:00,
2013-10-13 14:20:00,68.6,57.2,29.95,South,188,5.0,7.0,67,0.00,,,0.00,Wunderground v.1.15,2013-10-13 21:20:00,
2013-10-13 14:25:00,69.0,57.2,29.95,SSW,207,5.0,7.0,66,0.00,,,0.00,Wunderground v.1.15,2013-10-13 21:25:00,
2013-10-13 14:30:00,69.0,56.7,29.95,SSW,198,5.0,6.0,65,0.00,,,0.00,Wunderground v.1.15,2013-10-13 21:30:00,
2013-10-13 14:35:00,68.6,56.8,29.95,SSE,163,5.0,6.0,66,0.00,,,0.00,Wunderground v.1.15,2013-10-13 21:35:00,
2013-10-13 14:40:00,68.6,56.8,29.95,SW,217,5.0,9.0,66,0.00,,,0.00,Wunderground v.1.15,2013-10-13 21:40:00,
2013-10-13 14:50:00,68.3,57.3,29.95,SW,215,6.0,6.0,68,0.00,,,0.00,Wunderground v.1.15,2013-10-13 21:50:00,
2013-10-13 15:00:00,68.1,57.5,29.95,SSE,158,5.0,5.0,69,0.00,,,0.00,Wunderground v.1.15,2013-10-13 22:00:00,
2013-10-13 15:05:00,68.6,57.2,29.94,SSW,205,4.0,7.0,67,0.00,,,0.00,Wunderground v.1.15,2013-10-13 22:05:00,
2013-10-13 15:10:00,68.7,57.3,29.95,West,265,4.0,4.0,67,0.00,,,0.00,Wunderground v.1.15,2013-10-13 22:10:00,
2013-10-13 15:15:00,68.3,57.3,29.94,SW,225,5.0,5.0,68,0.00,,,0.00,Wunderground v.1.15,2013-10-13 22:15:00,
2013-10-13 15:20:00,68.0,57.0,29.94,South,190,6.0,6.0,68,0.00,,,0.00,Wunderground v.1.15,2013-10-13 22:20:00,
2013-10-13 15:25:00,68.2,56.8,29.94,SW,230,5.0,6.0,67,0.00,,,0.00,Wunderground v.1.15,2013-10-13 22:25:00,
2013-10-13 15:30:00,68.1,57.1,29.94,SW,225,4.0,5.0,68,0.00,,,0.00,Wunderground v.1.15,2013-10-13 22:30:00,
2013-10-13 15:35:00,68.2,57.2,29.94,WSW,242,5.0,6.0,68,0.00,,,0.00,Wunderground v.1.15,2013-10-13 22:35:00,
2013-10-13 15:40:00,68.1,57.1,29.94,SSW,211,5.0,5.0,68,0.00,,,0.00,Wunderground v.1.15,2013-10-13 22:40:00,
2013-10-13 15:45:00,68.2,57.2,29.94,SW,221,5.0,7.0,68,0.00,,,0.00,Wunderground v.1.15,2013-10-13 22:45:00,
2013-10-13 15:50:00,68.1,57.5,29.94,South,180,4.0,4.0,69,0.00,,,0.00,Wunderground v.1.15,2013-10-13 22:50:00,
2013-10-13 15:55:00,68.2,57.2,29.94,SW,232,4.0,6.0,68,0.00,,,0.00,Wunderground v.1.15,2013-10-13 22:55:00,
2013-10-13 16:00:00,67.7,57.2,29.94,SW,228,5.0,9.0,69,0.00,,,0.00,Wunderground v.1.15,2013-10-13 23:00:00,
2013-10-13 16:05:00,67.3,57.6,29.94,SW,214,6.0,9.0,71,0.00,,,0.00,Wunderground v.1.15,2013-10-13 23:05:00,
2013-10-13 16:10:00,67.1,57.0,29.94,WSW,242,6.0,6.0,70,0.00,,,0.00,Wunderground v.1.15,2013-10-13 23:10:00,
2013-10-13 16:16:00,67.1,57.4,29.95,SW,223,6.0,6.0,71,0.00,,,0.00,Wunderground v.1.15,2013-10-13 23:16:00,
2013-10-13 16:20:00,67.2,57.5,29.95,SSW,208,5.0,7.0,71,0.00,,,0.00,Wunderground v.1.15,2013-10-13 23:20:00,
2013-10-13 16:25:00,67.1,57.4,29.95,SSW,195,5.0,7.0,71,0.00,,,0.00,Wunderground v.1.15,2013-10-13 23:25:00,
2013-10-13 16:35:00,67.0,57.7,29.95,SSW,202,5.0,6.0,72,0.00,,,0.00,Wunderground v.1.15,2013-10-13 23:35:00,
2013-10-13 16:40:00,67.2,57.5,29.95,South,191,4.0,6.0,71,0.00,,,0.00,Wunderground v.1.15,2013-10-13 23:40:00,
2013-10-13 16:45:00,67.1,57.4,29.95,SW,227,5.0,8.0,71,0.00,,,0.00,Wunderground v.1.15,2013-10-13 23:45:00,
2013-10-13 16:50:00,66.7,57.4,29.95,SW,235,5.0,5.0,72,0.00,,,0.00,Wunderground v.1.15,2013-10-13 23:50:00,
2013-10-13 16:55:00,66.4,57.1,29.95,SW,223,5.0,10.0,72,0.00,,,0.00,Wunderground v.1.15,2013-10-13 23:55:00,
2013-10-13 17:00:00,66.2,57.7,29.95,SSW,199,5.0,7.0,74,0.00,,,0.00,Wunderground v.1.15,2013-10-14 00:00:00,
2013-10-13 17:05:00,65.9,57.4,29.95,SW,234,5.0,7.0,74,0.00,,,0.00,Wunderground v.1.15,2013-10-14 00:05:00,
2013-10-13 17:10:00,66.0,57.5,29.95,SW,217,5.0,5.0,74,0.00,,,0.00,Wunderground v.1.15,2013-10-14 00:10:00,
2013-10-13 17:20:00,65.7,57.2,29.95,SSE,165,4.0,4.0,74,0.00,,,0.00,Wunderground v.1.15,2013-10-14 00:20:00,
2013-10-13 17:25:00,65.5,57.4,29.95,SSW,197,4.0,4.0,75,0.00,,,0.00,Wunderground v.1.15,2013-10-14 00:25:00,
2013-10-13 17:30:00,65.2,57.1,29.95,WSW,237,4.0,4.0,75,0.00,,,0.00,Wunderground v.1.15,2013-10-14 00:30:00,
2013-10-13 17:35:00,65.0,57.2,29.95,SSW,208,4.0,4.0,76,0.00,,,0.00,Wunderground v.1.15,2013-10-14 00:35:00,
2013-10-13 17:40:00,64.7,57.0,29.95,WSW,245,4.0,4.0,76,0.00,,,0.00,Wunderground v.1.15,2013-10-14 00:40:00,
2013-10-13 17:45:00,64.6,57.2,29.95,WSW,238,3.0,4.0,77,0.00,,,0.00,Wunderground v.1.15,2013-10-14 00:45:00,
2013-10-13 17:50:00,64.5,57.1,29.95,South,175,3.0,5.0,77,0.00,,,0.00,Wunderground v.1.15,2013-10-14 00:50:00,
2013-10-13 17:55:00,64.4,57.0,29.95,SSW,213,3.0,5.0,77,0.00,,,0.00,Wunderground v.1.15,2013-10-14 00:55:00,
2013-10-13 18:00:00,64.1,57.1,29.96,SW,228,3.0,3.0,78,0.00,,,0.00,Wunderground v.1.15,2013-10-14 01:00:00,
2013-10-13 18:05:00,63.9,56.9,29.96,SW,219,3.0,3.0,78,0.00,,,0.00,Wunderground v.1.15,2013-10-14 01:05:00,
2013-10-13 18:10:00,63.8,56.8,29.96,SW,231,3.0,3.0,78,0.00,,,0.00,Wunderground v.1.15,2013-10-14 01:10:00,
2013-10-13 18:20:00,63.5,56.9,29.96,SW,236,3.0,3.0,79,0.00,,,0.00,Wunderground v.1.15,2013-10-14 01:20:00,
2013-10-13 18:25:00,63.4,56.8,29.96,SW,225,2.0,3.0,79,0.00,,,0.00,Wunderground v.1.15,2013-10-14 01:25:00,
2013-10-13 18:30:00,63.2,56.6,29.96,South,190,1.0,2.0,79,0.00,,,0.00,Wunderground v.1.15,2013-10-14 01:30:00,
2013-10-13 18:35:00,63.1,56.8,29.96,SW,216,2.0,3.0,80,0.00,,,0.00,Wunderground v.1.15,2013-10-14 01:35:00,
2013-10-13 18:40:00,63.1,56.8,29.96,SW,216,2.0,2.0,80,0.00,,,0.00,Wunderground v.1.15,2013-10-14 01:40:00,
2013-10-13 18:45:00,63.0,56.7,29.97,SW,216,1.0,2.0,80,0.00,,,0.00,Wunderground v.1.15,2013-10-14 01:45:00,
2013-10-13 18:50:00,62.8,56.5,29.97,SW,216,0.0,1.0,80,0.00,,,0.00,Wunderground v.1.15,2013-10-14 01:50:00,
2013-10-13 18:55:00,62.7,56.4,29.97,SW,216,0.0,1.0,80,0.00,,,0.00,Wunderground v.1.15,2013-10-14 01:55:00,
2013-10-13 19:00:00,62.6,56.3,29.97,SW,216,0.0,0.0,80,0.00,,,0.00,Wunderground v.1.15,2013-10-14 02:00:00,
2013-10-13 19:05:00,62.5,56.6,29.97,SW,216,0.0,0.0,81,0.00,,,0.00,Wunderground v.1.15,2013-10-14 02:05:00,
2013-10-13 19:10:00,62.4,56.5,29.97,SW,216,0.0,0.0,81,0.00,,,0.00,Wunderground v.1.15,2013-10-14 02:10:00,
2013-10-13 19:20:00,62.2,56.3,29.97,SW,216,0.0,0.0,81,0.00,,,0.00,Wunderground v.1.15,2013-10-14 02:20:00,
2013-10-13 19:25:00,62.1,56.2,29.97,SW,216,0.0,0.0,81,0.00,,,0.00,Wunderground v.1.15,2013-10-14 02:25:00,
2013-10-13 19:30:00,61.8,55.9,29.97,SW,216,0.0,0.0,81,0.00,,,0.00,Wunderground v.1.15,2013-10-14 02:30:00,
2013-10-13 19:35:00,61.5,55.6,29.97,SW,216,0.0,0.0,81,0.00,,,0.00,Wunderground v.1.15,2013-10-14 02:35:00,
2013-10-13 19:40:00,61.2,55.3,29.97,SW,216,0.0,0.0,81,0.00,,,0.00,Wunderground v.1.15,2013-10-14 02:40:00,
2013-10-13 19:50:00,60.7,55.2,29.97,SW,216,0.0,0.0,82,0.00,,,0.00,Wunderground v.1.15,2013-10-14 02:50:00,
2013-10-13 19:55:00,60.7,55.5,29.97,SW,216,0.0,0.0,83,0.00,,,0.00,Wunderground v.1.15,2013-10-14 02:55:00,
2013-10-13 20:00:00,60.7,55.5,29.97,SW,216,0.0,0.0,83,0.00,,,0.00,Wunderground v.1.15,2013-10-14 03:00:00,
2013-10-13 20:05:00,60.7,55.8,29.97,SW,216,0.0,0.0,84,0.00,,,0.00,Wunderground v.1.15,2013-10-14 03:05:00,
2013-10-13 20:10:00,60.8,55.9,29.98,SW,216,0.0,0.0,84,0.00,,,0.00,Wunderground v.1.15,2013-10-14 03:10:00,
2013-10-13 20:16:00,60.9,55.7,29.98,SW,216,0.0,0.0,83,0.00,,,0.00,Wunderground v.1.15,2013-10-14 03:16:00,
2013-10-13 20:20:00,60.8,55.6,29.98,SW,216,0.0,0.0,83,0.00,,,0.00,Wunderground v.1.15,2013-10-14 03:20:00,
2013-10-13 20:25:00,60.6,55.4,29.98,SW,216,0.0,0.0,83,0.00,,,0.00,Wunderground v.1.15,2013-10-14 03:25:00,
2013-10-13 20:30:00,60.4,55.5,29.98,SW,216,0.0,0.0,84,0.00,,,0.00,Wunderground v.1.15,2013-10-14 03:30:00,
2013-10-13 20:35:00,60.2,55.3,29.98,SW,216,0.0,0.0,84,0.00,,,0.00,Wunderground v.1.15,2013-10-14 03:35:00,
2013-10-13 20:40:00,60.0,55.2,29.98,SW,216,0.0,0.0,84,0.00,,,0.00,Wunderground v.1.15,2013-10-14 03:40:00,
2013-10-13 20:45:00,59.7,54.9,29.99,SW,216,0.0,0.0,84,0.00,,,0.00,Wunderground v.1.15,2013-10-14 03:45:00,
2013-10-13 20:50:00,59.6,55.1,29.99,SW,216,0.0,0.0,85,0.00,,,0.00,Wunderground v.1.15,2013-10-14 03:50:00,
2013-10-13 20:55:00,59.4,54.9,29.99,SW,216,0.0,0.0,85,0.00,,,0.00,Wunderground v.1.15,2013-10-14 03:55:00,
2013-10-13 21:00:00,59.3,54.8,29.99,SW,216,0.0,0.0,85,0.00,,,0.00,Wunderground v.1.15,2013-10-14 04:00:00,
2013-10-13 21:05:00,59.2,54.7,29.99,SW,216,0.0,0.0,85,0.00,,,0.00,Wunderground v.1.15,2013-10-14 04:05:00,
2013-10-13 21:10:00,59.0,54.5,30.00,SW,216,0.0,0.0,85,0.00,,,0.00,Wunderground v.1.15,2013-10-14 04:10:00,
2013-10-13 21:20:00,58.8,54.6,30.00,SW,216,0.0,0.0,86,0.00,,,0.00,Wunderground v.1.15,2013-10-14 04:20:00,
2013-10-13 21:30:00,58.6,54.4,30.00,SW,216,0.0,0.0,86,0.00,,,0.00,Wunderground v.1.15,2013-10-14 04:30:00,
2013-10-13 21:35:00,58.4,54.2,30.00,SW,216,0.0,0.0,86,0.00,,,0.00,Wunderground v.1.15,2013-10-14 04:35:00,
2013-10-13 21:40:00,58.2,54.0,30.00,SW,216,0.0,0.0,86,0.00,,,0.00,Wunderground v.1.15,2013-10-14 04:40:00,
2013-10-13 21:45:00,58.1,53.9,30.00,SW,216,0.0,0.0,86,0.00,,,0.00,Wunderground v.1.15,2013-10-14 04:45:00,
2013-10-13 21:50:00,58.1,53.9,30.00,SW,216,0.0,0.0,86,0.00,,,0.00,Wunderground v.1.15,2013-10-14 04:50:00,
2013-10-13 21:55:00,58.0,53.8,30.00,SW,216,0.0,0.0,86,0.00,,,0.00,Wunderground v.1.15,2013-10-14 04:55:00,
2013-10-13 22:00:00,57.8,53.6,30.00,SW,216,0.0,0.0,86,0.00,,,0.00,Wunderground v.1.15,2013-10-14 05:00:00,
2013-10-13 22:05:00,57.6,53.8,30.00,SW,216,0.0,0.0,87,0.00,,,0.00,Wunderground v.1.15,2013-10-14 05:05:00,
2013-10-13 22:10:00,57.5,53.7,30.00,SW,216,0.0,0.0,87,0.00,,,0.00,Wunderground v.1.15,2013-10-14 05:10:00,
2013-10-13 22:16:00,57.5,53.7,30.00,SW,216,0.0,0.0,87,0.00,,,0.00,Wunderground v.1.15,2013-10-14 05:16:00,
2013-10-13 22:25:00,57.4,53.6,30.00,SW,216,0.0,0.0,87,0.00,,,0.00,Wunderground v.1.15,2013-10-14 05:25:00,
2013-10-13 22:30:00,57.4,53.6,30.00,SW,216,0.0,0.0,87,0.00,,,0.00,Wunderground v.1.15,2013-10-14 05:30:00,
2013-10-13 22:40:00,57.2,53.4,30.00,SW,216,0.0,0.0,87,0.00,,,0.00,Wunderground v.1.15,2013-10-14 05:40:00,
2013-10-13 22:45:00,57.2,53.7,30.01,SW,216,0.0,0.0,88,0.00,,,0.00,Wunderground v.1.15,2013-10-14 05:45:00,
2013-10-13 22:50:00,57.2,53.7,30.01,SW,216,0.0,0.0,88,0.00,,,0.00,Wunderground v.1.15,2013-10-14 05:50:00,
2013-10-13 22:55:00,57.2,53.7,30.01,SW,216,0.0,0.0,88,0.00,,,0.00,Wunderground v.1.15,2013-10-14 05:55:00,
2013-10-13 23:00:00,57.3,53.8,30.01,SW,216,0.0,0.0,88,0.00,,,0.00,Wunderground v.1.15,2013-10-14 06:00:00,
2013-10-13 23:05:00,57.2,53.7,30.01,SW,216,0.0,0.0,88,0.00,,,0.00,Wunderground v.1.15,2013-10-14 06:05:00,
2013-10-13 23:10:00,57.1,53.6,30.01,SW,216,0.0,0.0,88,0.00,,,0.00,Wunderground v.1.15,2013-10-14 06:10:00,
2013-10-13 23:20:00,56.8,53.0,30.00,SW,216,0.0,0.0,87,0.00,,,0.00,Wunderground v.1.15,2013-10-14 06:20:00,
2013-10-13 23:25:00,56.6,52.8,30.01,SW,216,0.0,0.0,87,0.00,,,0.00,Wunderground v.1.15,2013-10-14 06:25:00,
2013-10-13 23:30:00,56.5,53.0,30.00,SW,216,0.0,0.0,88,0.00,,,0.00,Wunderground v.1.15,2013-10-14 06:30:00,
2013-10-13 23:35:00,56.6,53.1,30.00,SW,216,0.0,0.0,88,0.00,,,0.00,Wunderground v.1.15,2013-10-14 06:35:00,
2013-10-13 23:40:00,56.5,53.0,30.00,SW,216,0.0,0.0,88,0.00,,,0.00,Wunderground v.1.15,2013-10-14 06:40:00,
2013-10-13 23:45:00,56.5,53.0,30.00,SW,216,0.0,0.0,88,0.00,,,0.00,Wunderground v.1.15,2013-10-14 06:45:00,
2013-10-13 23:55:00,56.2,52.7,30.00,SW,216,0.0,0.0,88,0.00,,,0.00,Wunderground v.1.15,2013-10-14 06:55:00,